{"data":{"norad_id":66933,"intl_designator":"2025-286J","name":"STARLINK-36157","alt_names":[],"object_type":"PAYLOAD","status":"ACTIVE","operator":null,"country":"US","launch_date":"2025-12-07","launch_site_code":"AFWTR","launch_vehicle":null,"mission":null,"orbit_class":"UNKNOWN","rcs_meters":null,"size_class":null,"mass_kg":null,"dimensions":null,"purposes":["comms"],"wikipedia_slug":null,"has_3d_model":false,"image_url":null,"decayed_at":null,"tle_current":{"epoch":"2026-05-25T00:07:57.239904Z","epoch_age_seconds":71203,"freshness":"FRESH","line1":"1 66933U 25286J   26145.00552361  .00039201  00000+0  11643-2 0  9991","line2":"2 66933  53.1623   3.7856 0001224  99.5023 260.6118 15.34427079 27101","mean_motion":15.34427079,"eccentricity":0.0001224,"inclination_deg":53.1623,"raan_deg":3.7856,"arg_perigee_deg":99.5023,"mean_anomaly_deg":260.6118,"bstar":0.0011643,"rev_number":2710,"period_min":93.846101890906,"perigee_km":461.78544790186,"apogee_km":463.46006589035,"semimajor_km":6840.7597568961,"source":"CELESTRAK","updated_at":"2026-05-25T13:38:21.386439Z"}}}